Hourly Data Report for July 19, 2021

DRYDEN REGIONAL
ONTARIO
Current Station Operator: NAVCAN

49°49'39.000" N
92°44'39.000" W
412.70 m
6032125
71527
YHD

Download Data

Hourly Data (July 2021)
Hourly Data Report for July 19, 2021
TIME
LST
Temp Definition
°C
Dew Point Definition
°C
Rel Hum Definition
%
Precip. Amount Definition
mm

Wind Dir Definition
10's deg

Wind Spd Definition
km/h
Visibility Definition
km
Stn Press Definition
kPa
Hmdx Definition


Wind Chill Definition


Weather Definition


00:00 21.6 12.8 57 0.0 22 11 16.1 97.00     LegendNANA
01:00 21.5 12.8 57 0.0 22 11 16.1 97.00     LegendNANA
02:00 21.3 13.5 61 0.0 21 17 16.1 96.95     LegendNANA
03:00 21.7 14.7 64 0.0 23 15 16.1 96.93 25   LegendNANA
04:00 22.3 15.8 66 0.0 22 15 16.1 96.88 27   LegendNANA
05:00 22.1 15.1 64 0.0 13 11 16.1 96.93 26   LegendNANA
06:00 19.8 17.0 84 0.0 6 17 16.1 97.07     Thunderstorms
07:00 18.3 17.5 95 14.2 16 26 16.1 96.99     Rain
08:00 18.4 17.9 97 0.0 21 21 16.1 97.05     LegendNANA
09:00 20.0 18.0 88 0.0 20 28 16.1 96.98 26   LegendNANA
10:00 21.8 18.6 82 0.0 22 15 16.1 97.00 28   LegendNANA
11:00 19.5 17.3 87 0.0 23 18 16.1 97.04     LegendNANA
12:00 19.8 17.3 85 0.0 24 13 16.1 97.02     LegendNANA
13:00 20.9 18.6 87 0.0 25 21 16.1 97.00 27   LegendNANA
14:00 20.8 19.0 89 0.0 26 13 6.4 97.05 28   Fog
15:00 20.1 18.3 89 0.0 36 15 2.8 97.09 26   Fog
16:00 18.9 16.7 87 0.0 35 13 6.4 97.16     Fog
17:00 17.9 15.9 88 0.0 1 15 6.4 97.18     Fog
18:00 17.0 15.0 88 0.0 3 13 9.7 97.20     Fog
19:00 16.1 14.3 89 0.0 2 15 9.7 97.25     Fog
20:00 15.1 13.8 92 0.0 4 15 6.4 97.25     Fog
21:00 14.8 13.0 89 0.0 3 9 12.9 97.38     LegendNANA
22:00 14.5 12.8 89 0.0 2 9 16.1 97.48     LegendNANA
23:00 14.3 12.7 90 0.0 5 18 16.1 97.42     LegendNANA

Notes on Data Quality.

Legend

  • E = Estimated
  • M = Missing
  • NA = Not Available*
  • [empty] = Indicates an unobserved value
Date modified: